Lander, WY

8:03 AM MST on February 26, 2017 (GMT -0700)
Hunt

Weather History for KLND - October, 2012

Change the Weather History Date:

Tuesday, October 2, 2012

  Actual Average Record
Temperature  
Mean Temperature 62 °F 51 °F  
Max Temperature 81 °F 64 °F 83 °F (2011)
Min Temperature 42 °F 38 °F 20 °F (1891)
Degree Days  
Heating Degree Days 3 14  
Month to date heating degree days 9 28  
Since 1 July heating degree days 96 287  
Cooling Degree Days 0 0  
Month to date cooling degree days 0 0  
Year to date cooling degree days 779 472  
Growing Degree Days 14 (Base 50)    
Moisture  
Dew Point 23 °F    
Average Humidity 27    
Maximum Humidity 45    
Minimum Humidity 9    
Precipitation  
Precipitation 0.00 in 0.05 in 1.69 in (1930)
Month to date precipitation 0.00 0.10  
Year to date precipitation 5.03 10.03  
Snow  
Snow 0.00 in 0.30 in - ()
Month to date snowfall 0.0 0.5  
Since 1 July snowfall 0.0 3.2  
Since 1 September snowfall 0.0 3.2  
Snow Depth 0.00 in    
Sea Level Pressure  
Sea Level Pressure 29.79 in    
Wind  
Wind Speed 8 mph (West)    
Max Wind Speed 22 mph    
Max Gust Speed 37 mph    
Visibility 10 miles    
Events      
T = Trace of Precipitation, MM = Missing Value Source: NWS Daily Summary

Daily Weather History Graph

Daily Weather History Graph

Search for Another Location

Airport or City:

Trip Planner

Search our weather history database for the weather conditions in past years. The results will help you decide how hot, cold, wet, or windy it might be!

Date:

Astronomy

Oct. 02, 2012 Rise Set
Actual Time 7:13 AM MDT 6:53 PM MDT
Civil Twilight 6:45 AM MDT 7:21 PM MDT
Nautical Twilight 6:12 AM MDT 7:54 PM MDT
Astronomical Twilight 5:39 AM MDT 8:27 PM MDT
Moon 8:03 PM MDT (10/2) 9:48 AM MDT (10/2)
Length of Visible Light 12h 35m
Length of Day
11h 39m
Waning Gibbous, 94% of the Moon is Illuminated
Oct 2
Waning Gibbous
Oct 8
Last Quarter
Oct 15
New
Oct 21
First Quarter
Oct 29
Full

Hourly Weather History & Observations

Time (MDT) Temp. Windchill Dew Point Humidity Pressure Visibility Wind Dir Wind Speed Gust Speed Precip Events Conditions
12:53 AM 54.0 °F - 26.1 °F 34% 29.91 in 10.0 mi WSW 4.6 mph - N/A   Clear
1:53 AM 53.1 °F - 27.0 °F 37% 29.89 in 10.0 mi Calm Calm - N/A   Clear
2:53 AM 51.1 °F - 27.0 °F 39% 29.89 in 10.0 mi WNW 4.6 mph - N/A   Clear
3:53 AM 46.0 °F 43.1 °F 26.1 °F 46% 29.89 in 10.0 mi NE 5.8 mph - N/A   Clear
4:53 AM 46.9 °F - 27.0 °F 46% 29.88 in 10.0 mi Calm Calm - N/A   Clear
5:53 AM 46.9 °F - 26.1 °F 44% 29.88 in 10.0 mi NW 4.6 mph - N/A   Clear
6:53 AM 51.1 °F - 24.1 °F 35% 29.86 in 10.0 mi ESE 3.5 mph - N/A   Clear
7:53 AM 48.9 °F - 24.1 °F 38% 29.88 in 10.0 mi NNW 3.5 mph - N/A   Clear
8:53 AM 59.0 °F - 24.1 °F 26% 29.85 in 10.0 mi West 5.8 mph - N/A   Clear
9:53 AM 64.9 °F - 26.1 °F 23% 29.85 in 10.0 mi West 4.6 mph - N/A   Clear
10:53 AM 66.9 °F - 26.1 °F 21% 29.84 in 10.0 mi Calm Calm - N/A   Clear
11:53 AM 70.0 °F - 27.0 °F 20% 29.83 in 10.0 mi Variable 3.5 mph - N/A   Clear
12:53 PM 73.9 °F - 28.0 °F 18% 29.77 in 10.0 mi ESE 3.5 mph - N/A   Clear
1:53 PM 78.1 °F - 24.1 °F 14% 29.72 in 10.0 mi NNE 6.9 mph - N/A   Clear
2:53 PM 81.0 °F - 19.9 °F 10% 29.70 in 10.0 mi West 9.2 mph 36.8 mph N/A   Clear
3:53 PM 80.1 °F - 18.0 °F 10% 29.70 in 10.0 mi West 12.7 mph 21.9 mph N/A   Clear
4:53 PM 79.0 °F - 16.0 °F 9% 29.70 in 10.0 mi WNW 18.4 mph - N/A   Clear
5:53 PM 75.9 °F - 16.0 °F 10% 29.70 in 10.0 mi West 21.9 mph 28.8 mph N/A   Clear
6:53 PM 71.1 °F - 15.1 °F 12% 29.72 in 10.0 mi West 9.2 mph - N/A   Clear
7:53 PM 66.0 °F - 17.1 °F 15% 29.75 in 10.0 mi West 11.5 mph - N/A   Clear
8:53 PM 64.9 °F - 18.0 °F 16% 29.72 in 10.0 mi SW 11.5 mph - N/A   Clear
9:53 PM 63.0 °F - 19.0 °F 18% 29.71 in 10.0 mi WSW 15.0 mph - N/A   Clear
10:53 PM 61.0 °F - 21.0 °F 21% 29.72 in 10.0 mi SW 5.8 mph - N/A   Clear
11:53 PM 62.1 °F - 21.0 °F 21% 29.69 in 10.0 mi WSW 11.5 mph - N/A   Clear